Weather History for KLAA - February, 2013

Change the Weather History Date:

Thursday, February 7, 2013

  Actual Average Record
Temperature  
Mean Temperature 39 °F 32 °F  
Max Temperature 55 °F 48 °F - ()
Min Temperature 22 °F 16 °F - ()
Degree Days  
Heating Degree Days 26 33  
Month to date heating degree days 193 236  
Since 1 July heating degree days 3412 3667  
Cooling Degree Days 0 0  
Month to date cooling degree days 0 0  
Year to date cooling degree days 0 0  
Moisture  
Dew Point 18 °F    
Average Humidity 44    
Maximum Humidity 69    
Minimum Humidity 19    
Precipitation  
Precipitation 0.00 in 0.02 in - ()
Month to date precipitation 0.00 0.10  
Year to date precipitation 0.02 0.40  
Sea Level Pressure  
Sea Level Pressure 30.09 in    
Wind  
Wind Speed 8 mph (NNW)    
Max Wind Speed 20 mph    
Max Gust Speed 24 mph    
Visibility 10 miles    
Events      
T = Trace of Precipitation, MM = Missing Value Source: NWS Daily Summary

Daily Weather History Graph

Daily Weather History Graph

Search for Another Location

Airport or City:

Trip Planner

Search our weather history database for the weather conditions in past years. The results will help you decide how hot, cold, wet, or windy it might be!

Date:

Astronomy

Feb. 07, 2013 Rise Set
Actual Time 6:49 AM MST 5:20 PM MST
Civil Twilight 6:21 AM MST 5:48 PM MST
Nautical Twilight 5:50 AM MST 6:19 PM MST
Astronomical Twilight 5:20 AM MST 6:50 PM MST
Moon 4:29 AM MST (2/7) 2:49 PM MST (2/7)
Length of Visible Light 11h 26m
Length of Day
10h 31m
Waning Crescent, 8% of the Moon is Illuminated
Feb 7
Waning Crescent
Feb 10
New
Feb 17
First Quarter
Feb 25
Full
Mar 4
Last Quarter

Hourly Weather History & Observations

Time (MST) Temp. Windchill Dew Point Humidity Pressure Visibility Wind Dir Wind Speed Gust Speed Precip Events Conditions
12:53 AM 45.0 °F 38.2 °F 21.9 °F 40% 29.91 in 10.0 mi North 15.0 mph - N/A   Clear
1:53 AM 43.0 °F 35.4 °F 24.1 °F 47% 29.93 in 10.0 mi North 16.1 mph - N/A   Partly Cloudy
2:53 AM 43.0 °F 36.0 °F 24.1 °F 47% 29.94 in 10.0 mi North 13.8 mph - N/A   Overcast
3:53 AM 43.0 °F 35.4 °F 26.1 °F 51% 29.95 in 10.0 mi NNE 16.1 mph - N/A   Overcast
4:53 AM 39.0 °F 31.8 °F 23.0 °F 53% 30.01 in 10.0 mi North 11.5 mph 18.4 mph N/A   Overcast
5:53 AM 34.0 °F 27.2 °F 21.9 °F 61% 30.06 in 10.0 mi NW 8.1 mph - N/A   Clear
6:53 AM 30.0 °F 23.2 °F 21.0 °F 69% 30.11 in 10.0 mi NW 6.9 mph - N/A   Mostly Cloudy
7:53 AM 34.0 °F 28.0 °F 23.0 °F 64% 30.15 in 10.0 mi NW 6.9 mph - N/A   Clear
8:53 AM 39.0 °F 32.3 °F 24.1 °F 55% 30.16 in 10.0 mi NW 10.4 mph - N/A   Clear
9:53 AM 45.0 °F 43.5 °F 26.1 °F 48% 30.16 in 10.0 mi North 3.5 mph - N/A   Clear
10:53 AM 48.9 °F - 23.0 °F 36% 30.14 in 10.0 mi NW 6.9 mph - N/A   Clear
11:53 AM 51.1 °F - 19.9 °F 29% 30.11 in 10.0 mi North 9.2 mph 16.1 mph N/A   Clear
12:53 PM 52.0 °F - 19.9 °F 28% 30.09 in 10.0 mi North 4.6 mph 17.3 mph N/A   Clear
1:53 PM 54.0 °F - 16.0 °F 22% 30.07 in 10.0 mi NNW 10.4 mph 18.4 mph N/A   Clear
2:53 PM 54.0 °F - 15.1 °F 22% 30.06 in 10.0 mi NNE 5.8 mph - N/A   Clear
3:53 PM 54.0 °F - 12.9 °F 20% 30.06 in 10.0 mi NW 6.9 mph - N/A   Clear
4:53 PM 52.0 °F - 14.0 °F 22% 30.08 in 10.0 mi East 3.5 mph - N/A   Clear
5:53 PM 44.1 °F 41.5 °F 12.9 °F 28% 30.13 in 10.0 mi SSE 4.6 mph - N/A   Clear
6:53 PM 30.0 °F 20.5 °F 9.0 °F 41% 30.18 in 10.0 mi SSW 11.5 mph - N/A   Clear
7:53 PM 27.0 °F 18.0 °F 10.9 °F 51% 30.19 in 10.0 mi SSW 9.2 mph - N/A   Clear
8:53 PM 25.0 °F 16.3 °F 10.9 °F 55% 30.18 in 10.0 mi SSW 8.1 mph - N/A   Clear
10:53 PM 26.1 °F 21.9 °F 10.9 °F 53% 30.15 in 10.0 mi NNE 3.5 mph - N/A   Clear
11:53 PM 25.0 °F - 10.9 °F 55% 30.16 in 10.0 mi Calm Calm - N/A   Clear